Tracking 25710 objects as of 5-Jul-2022
HD Live streaming from Space Station
objects crossing your sky now

STARLINK-3881

Track STARLINK-3881 now!
10-day predictions
STARLINK-3881 is classified as:


NORAD ID: 52472
Int'l Code: 2022-049X
Perigee: 436.5 km
Apogee: 438.9 km
Inclination: 53.2 °
Period: 93.2 minutes
Semi major axis: 6808 km
RCS: Unknown
Launch date: May 6, 2022
Source: United States (US)
Launch site: AIR FORCE EASTERN TEST RANGE (AFETR)
aabbcc
Your satellite tracking list
Your tracking list is empty




NASA's NSSDC Master Catalog

Two Line Element Set (TLE):
1 52472U 22049X   22185.91667824 -.01054133  00000-0 -24021-1 0  9997
2 52472  53.2173 333.5647 0001712  40.8193 116.8698 15.45282170  1308
Source of the keplerian elements: AFSPC